| time (UTC) | temp F | wind direction | speed MPH | gust MPH | rain 1hr in | rain 24hr in | rain mn in | humidity % | barometer mb |
| 20260904161558 | 90 | 86 | 0.0 | 1.0 | 0.00 | 0.00 | 0.00 | 62 | 993.7 |
| 20260904160057 | 88 | 84 | 0.0 | 3.0 | 0.00 | 0.00 | 0.00 | 66 | 993.9 |
| 20260904154549 | 87 | 119 | 0.0 | 3.0 | 0.00 | 0.00 | 0.00 | 71 | 993.8 |
| 20260904153050 | 86 | 143 | 0.0 | 3.0 | 0.00 | 0.00 | 0.00 | 73 | 993.7 |
| 20260904151543 | 85 | 74 | 4.0 | 10.0 | 0.00 | 0.00 | 0.00 | 76 | 993.6 |
| 20260904150049 | 84 | 52 | 0.0 | 2.0 | 0.00 | 0.00 | 0.00 | 78 | 993.6 |
| 20260904144538 | 83 | 102 | 1.0 | 9.0 | 0.00 | 0.00 | 0.00 | 82 | 993.7 |
| 20260904143038 | 82 | 76 | 0.0 | 2.0 | 0.00 | 0.00 | 0.00 | 84 | 993.8 |
| 20260904141532 | 81 | 95 | 0.0 | 4.0 | 0.00 | 0.00 | 0.00 | 85 | 993.7 |
| 20260904140035 | 81 | 67 | 0.0 | 2.0 | 0.00 | 0.00 | 0.00 | 87 | 993.6 |
| 20260904134523 | 79 | 66 | 0.0 | 5.0 | 0.00 | 0.00 | 0.00 | 89 | 993.5 |
| 20260904133022 | 78 | 53 | 0.0 | 3.0 | 0.00 | 0.00 | 0.00 | 90 | 993.4 |
| 20260904131521 | 78 | 62 | 0.0 | 6.0 | 0.00 | 0.00 | 0.00 | 91 | 993.3 |
| 20260904130020 | 77 | 41 | 0.0 | 7.0 | 0.00 | 0.00 | 0.00 | 92 | 993.1 |
| 20260904124517 | 76 | 30 | 0.0 | 2.0 | 0.00 | 0.00 | 0.00 | 93 | 993.0 |
| 20260904123017 | 76 | 41 | 0.0 | 2.0 | 0.00 | 0.00 | 0.00 | 93 | 992.9 |
| 20260904121516 | 76 | 37 | 0.0 | 6.0 | 0.00 | 0.00 | 0.00 | 93 | 992.8 |
| 20260904120014 | 76 | 29 | 0.0 | 2.0 | 0.00 | 0.00 | 0.00 | 92 | 992.7 |
| 20260904114513 | 76 | 39 | 0.0 | 2.0 | 0.00 | 0.00 | 0.00 | 92 | 992.7 |
| 20260904113018 | 76 | 50 | 0.0 | 5.0 | 0.00 | 0.00 | 0.00 | 91 | 992.3 |
| 20260904111511 | 75 | 33 | 0.0 | 2.0 | 0.00 | 0.00 | 0.00 | 91 | 992.3 |
| 20260904110021 | 75 | 44 | 0.0 | 2.0 | 0.00 | 0.00 | 0.00 | 90 | 992.4 |
| 20260904104508 | 75 | 28 | 0.0 | 2.0 | 0.00 | 0.00 | 0.00 | 90 | 992.3 |
| 20260904103006 | 76 | 359 | 0.0 | 1.0 | 0.00 | 0.00 | 0.00 | 89 | 992.2 |
| 20260904101505 | 76 | 119 | 0.0 | 2.0 | 0.00 | 0.00 | 0.00 | 88 | 992.1 |
| 20260904100005 | 76 | 40 | 0.0 | 2.0 | 0.00 | 0.00 | 0.00 | 87 | 991.9 |
| 20260904094503 | 76 | 39 | 0.0 | 5.0 | 0.00 | 0.00 | 0.00 | 87 | 991.9 |
| 20260904093002 | 76 | 44 | 0.0 | 2.0 | 0.00 | 0.00 | 0.00 | 86 | 992.0 |
| 20260904091501 | 76 | 59 | 0.0 | 2.0 | 0.00 | 0.00 | 0.00 | 85 | 991.9 |
| 20260904090000 | 76 | 38 | 0.0 | 1.0 | 0.00 | 0.00 | 0.00 | 85 | 992.0 |
| 20260904084601 | 76 | 36 | 0.0 | 3.0 | 0.00 | 0.00 | 0.00 | 84 | 991.9 |
| 20260904083058 | 77 | 52 | 0.0 | 1.0 | 0.00 | 0.00 | 0.00 | 84 | 991.9 |
| 20260904081558 | 77 | 39 | 0.0 | 2.0 | 0.00 | 0.00 | 0.00 | 83 | 991.9 |
| 20260904074556 | 77 | 46 | 0.0 | 1.0 | 0.00 | 0.00 | 0.00 | 83 | 991.8 |
| 20260904073055 | 77 | 359 | 0.0 | 1.0 | 0.00 | 0.00 | 0.00 | 82 | 991.9 |
| 20260904071554 | 77 | 48 | 0.0 | 1.0 | 0.00 | 0.00 | 0.00 | 82 | 992.0 |
| 20260904070053 | 78 | 62 | 0.0 | 1.0 | 0.00 | 0.00 | 0.00 | 82 | 992.0 |
| 20260904064550 | 78 | 87 | 0.0 | 2.0 | 0.00 | 0.00 | 0.00 | 82 | 992.1 |
| 20260904063050 | 78 | 61 | 0.0 | 1.0 | 0.00 | 0.00 | 0.00 | 81 | 992.1 |
| 20260904061552 | 78 | 98 | 0.0 | 1.0 | 0.00 | 0.00 | 0.00 | 81 | 992.2 |
| 20260904060047 | 78 | 59 | 0.0 | 1.0 | 0.00 | 0.00 | 0.00 | 80 | 992.1 |
| 20260904054546 | 79 | 56 | 0.0 | 1.0 | 0.00 | 0.00 | 0.00 | 79 | 992.1 |
| 20260904053046 | 79 | 52 | 0.0 | 2.0 | 0.00 | 0.00 | 0.00 | 78 | 992.1 |
| 20260904051549 | 79 | 75 | 0.0 | 2.0 | 0.00 | 0.00 | 0.00 | 77 | 992.1 |
| 20260904050041 | 79 | 54 | 0.0 | 2.0 | 0.00 | 0.00 | 0.00 | 76 | 992.1 |
| 20260904044540 | 79 | 68 | 0.0 | 2.0 | 0.00 | 0.00 | 0.00 | 75 | 992.1 |
| 20260904043040 | 80 | 73 | 0.0 | 2.0 | 0.00 | 0.00 | 0.00 | 74 | 992.1 |
| 20260904041549 | 80 | 39 | 0.0 | 6.0 | 0.00 | 0.00 | 0.00 | 74 | 992.2 |
| 20260904040039 | 80 | 59 | 0.0 | 2.0 | 0.00 | 0.00 | 0.00 | 73 | 992.2 |
| 20260904034549 | 80 | 62 | 0.0 | 6.0 | 0.00 | 0.00 | 0.00 | 72 | 992.2 |
| 20260904033038 | 81 | 52 | 0.0 | 2.0 | 0.00 | 0.00 | 0.00 | 72 | 992.2 |
| 20260904031543 | 81 | 49 | 0.0 | 3.0 | 0.00 | 0.00 | 0.00 | 72 | 992.2 |
| 20260904030037 | 81 | 42 | 0.0 | 2.0 | 0.00 | 0.00 | 0.00 | 72 | 992.1 |
| 20260904024536 | 81 | 52 | 0.0 | 7.0 | 0.00 | 0.00 | 0.00 | 72 | 992.0 |
| 20260904023035 | 81 | 66 | 0.0 | 3.0 | 0.00 | 0.00 | 0.00 | 72 | 991.7 |
| 20260904021536 | 82 | 60 | 0.0 | 3.0 | 0.00 | 0.00 | 0.00 | 72 | 991.4 |
| 20260904020035 | 82 | 64 | 0.0 | 2.0 | 0.00 | 0.00 | 0.00 | 73 | 991.3 |
| 20260904014534 | 82 | 84 | 0.0 | 2.0 | 0.00 | 0.00 | 0.00 | 75 | 991.1 |
| 20260904013035 | 83 | 52 | 0.0 | 9.0 | 0.00 | 0.00 | 0.00 | 74 | 990.9 |
| 20260904011556 | 83 | 52 | 1.0 | 10.0 | 0.00 | 0.00 | 0.00 | 73 | 990.8 |
| 20260904010033 | 84 | 90 | 0.0 | 5.0 | 0.00 | 0.00 | 0.00 | 72 | 990.7 |
| 20260904004532 | 85 | 38 | 0.0 | 4.0 | 0.00 | 0.00 | 0.00 | 71 | 990.8 |
| 20260904003031 | 85 | 51 | 1.0 | 10.0 | 0.00 | 0.00 | 0.00 | 70 | 990.8 |
| 20260904001531 | 86 | 89 | 0.0 | 7.0 | 0.00 | 0.00 | 0.00 | 66 | 990.7 |
| 20260904000039 | 86 | 43 | 0.0 | 10.0 | 0.00 | 0.00 | 0.00 | 68 | 990.5 |
| 20260903234538 | 87 | 31 | 1.0 | 11.0 | 0.00 | 0.00 | 0.00 | 67 | 990.5 |
| 20260903233029 | 87 | 75 | 0.0 | 6.0 | 0.00 | 0.00 | 0.00 | 68 | 990.4 |
| 20260903231529 | 87 | 56 | 0.0 | 11.0 | 0.00 | 0.00 | 0.00 | 66 | 990.4 |
| 20260903230040 | 87 | 21 | 1.0 | 8.0 | 0.00 | 0.00 | 0.00 | 67 | 990.3 |
| 20260903224528 | 88 | 32 | 3.0 | 11.0 | 0.00 | 0.00 | 0.00 | 67 | 990.2 |
| 20260903223028 | 88 | 35 | 1.0 | 10.0 | 0.00 | 0.00 | 0.00 | 66 | 990.1 |
| 20260903221527 | 89 | 27 | 1.0 | 9.0 | 0.00 | 0.00 | 0.00 | 63 | 990.1 |
| 20260903220026 | 89 | 359 | 0.0 | 9.0 | 0.00 | 0.00 | 0.00 | 63 | 990.1 |
| 20260903214529 | 89 | 30 | 0.0 | 12.0 | 0.00 | 0.00 | 0.00 | 63 | 990.4 |
| 20260903213030 | 89 | 125 | 0.0 | 7.0 | 0.00 | 0.00 | 0.00 | 63 | 990.5 |
| 20260903211521 | 88 | 112 | 0.0 | 2.0 | 0.00 | 0.00 | 0.00 | 64 | 990.6 |
| 20260903210019 | 88 | 127 | 1.0 | 9.0 | 0.00 | 0.00 | 0.00 | 65 | 990.9 |
| 20260903204516 | 87 | 122 | 0.0 | 1.0 | 0.00 | 0.00 | 0.00 | 66 | 991.0 |
| 20260903203026 | 87 | 359 | 0.0 | 1.0 | 0.00 | 0.00 | 0.00 | 67 | 991.2 |
| 20260903201511 | 87 | 71 | 0.0 | 10.0 | 0.00 | 0.00 | 0.00 | 68 | 991.3 |
| 20260903200010 | 86 | 66 | 0.0 | 3.0 | 0.00 | 0.00 | 0.00 | 69 | 991.4 |
| 20260903194508 | 86 | 40 | 0.0 | 10.0 | 0.00 | 0.00 | 0.00 | 69 | 991.3 |
| 20260903193018 | 86 | 64 | 0.0 | 12.0 | 0.00 | 0.00 | 0.00 | 70 | 991.7 |
| 20260903191507 | 85 | 114 | 2.0 | 10.0 | 0.00 | 0.00 | 0.00 | 70 | 991.8 |
| 20260903190007 | 85 | 53 | 4.0 | 18.0 | 0.00 | 0.00 | 0.00 | 70 | 992.2 |
| 20260903184506 | 85 | 64 | 0.0 | 12.0 | 0.00 | 0.00 | 0.00 | 70 | 992.3 |
| 20260903183006 | 85 | 81 | 0.0 | 13.0 | 0.00 | 0.00 | 0.00 | 72 | 992.3 |
| 20260903181511 | 85 | 359 | 2.0 | 14.0 | 0.00 | 0.00 | 0.00 | 71 | 992.5 |
| 20260903180106 | 83 | 64 | 0.0 | 11.0 | 0.00 | 0.00 | 0.00 | 75 | 992.8 |
| 20260903174559 | 82 | 108 | 2.0 | 13.0 | 0.00 | 0.00 | 0.00 | 76 | 993.1 |
| 20260903173057 | 82 | 30 | 5.0 | 15.0 | 0.00 | 0.00 | 0.00 | 76 | 993.0 |
| 20260903171606 | 82 | 81 | 1.0 | 10.0 | 0.00 | 0.00 | 0.00 | 78 | 993.2 |
| 20260903170056 | 81 | 35 | 3.0 | 15.0 | 0.00 | 0.00 | 0.00 | 80 | 993.1 |
| 20260903164619 | 81 | 80 | 4.0 | 14.0 | 0.00 | 0.00 | 0.00 | 81 | 993.1 |
| 20260903163100 | 82 | 66 | 5.0 | 14.0 | 0.00 | 0.00 | 0.00 | 80 | 993.0 |